Regional Weather Roundup
Issued by NWS Cleveland, OH

Home | Current Version | Previous Version | Text Only | Print | Product List | Glossary Off
Versions: 1 2 3 4 5 6 7 8 9 10 11 12 13 14 15 16 17 18 19 20 21 22 23 24 25 26 27 28 29 30 31 32 33 34 35 36 37 38 39 40 41 42 43 44 45 46 47 48 49 50

109
ASUS41 KCLE 212202
RWRCLE
OHIO REGIONAL WEATHER ROUNDUP
NATIONAL WEATHER SERVICE CLEVELAND, OH
500 PM EST SUN JAN 21 2018

NOTE: "FAIR" INDICATES FEW OR NO CLOUDS BELOW 12,000 FEET WITH NO
SIGNIFICANT WEATHER AND/OR OBSTRUCTIONS TO VISIBILITY.

OHZ001>008-015>018-024>027-034-035-043-044-212300-
   NORTHWEST OHIO

CITY           SKY/WX    TMP DP  RH WIND       PRES   REMARKS
DEFIANCE       FOG       42  41  96 CALM      30.00R VSB<1/4
FINDLAY        CLOUDY    44  42  93 S9        30.00R FOG
TOLEDO EXPRESS FOG       43  43 100 CALM      30.00R VSB 1/4
TOLEDO EXEC    FOG       42  42 100 CALM      30.02R VSB 1/4
LIMA           CLOUDY    47  46  97 S6        30.00R
$$

OHZ009>014-019>023-028>033-038-089-212300-
   NORTHEAST OHIO

CITY           SKY/WX    TMP DP  RH WIND       PRES   REMARKS
CLE-HOPKINS    CLOUDY    47  42  83 S7        30.06R
CLE-LAKEFRONT  CLOUDY    47  41  80 S9        30.03R
CUY CO. ARPT   CLOUDY    46  32  57 S9        30.04R FOG
LORAIN-ELYRIA  CLOUDY    44  38  79 SW7       30.03R
ASHTABULA      CLOUDY    41  41 100 S3        30.05S FOG
AKRON-CANTON   CLOUDY    45  39  79 SW10      30.05R
WOOSTER        CLOUDY    44  40  85 S7        30.05R
MANSFIELD      CLOUDY    46  43  89 S10       30.03R
YOUNGSTOWN     CLOUDY    45  40  82 SW8       30.04R
$$

OHZ042-051>053-060>062-070>072-077>081-212300-
  SOUTHWEST OHIO

CITY           SKY/WX    TMP DP  RH WIND       PRES   REMARKS
CINC-COVINGTON CLOUDY    54  50  86 S12       30.04R
CINC-LUNKEN    CLOUDY    54  50  86 S9        30.06R
HAMILTON       CLOUDY    55  48  77 CALM      30.04S
DAYTON         CLOUDY    52  48  86 S9        30.03S
WRIGHT-PAT AFB CLOUDY    53  44  73 S8        30.03R
DAYTON GENERAL CLOUDY    53  47  79 S9        30.03R
WILMINGTON     CLOUDY    50  48  93 S12       30.04S
$$

OHZ036-037-039>041-045>050-054>059-063>069-073>076-082>088-212300-
  CENTRAL AND SOUTHEAST OHIO

CITY           SKY/WX    TMP DP  RH WIND       PRES   REMARKS
COLUMBUS       CLOUDY    50  47  89 S7        30.05S
OSU AIRPORT    CLOUDY    49  46  90 S7        30.04S
BOLTON FIELD   CLOUDY    46  45  93 S8        30.05R
RICKENBACK AFB CLOUDY    49  47  93 S5        30.05S
NEWARK         CLOUDY    43  39  86 CALM      30.05R
MARION         CLOUDY    44  40  85 S9        30.03S
LANCASTER      CLOUDY    51  46  83 SW6       30.07R
ZANESVILLE     CLOUDY    50  42  74 S5        30.06S
NEW PHILLY     NOT AVBL
$$




USA.gov is the U.S. government's official web portal to all federal, state and local government web resources and services.